Weather History for Twentynine Palms, CA

Change the Weather History Date:

Saturday, July 20, 2013

  Actual Average Record
Temperature  
Mean Temperature 90 °F -  
Max Temperature 99 °F 99 °F 109 °F (2000)
Min Temperature 81 °F 75 °F 50 °F (1998)
Cooling Degree Days 25    
Growing Degree Days 40 (Base 50)    
Moisture  
Dew Point 64 °F    
Average Humidity 45    
Maximum Humidity 58    
Minimum Humidity 26    
Precipitation  
Precipitation 0.00 in - - ()
Sea Level Pressure  
Sea Level Pressure 29.78 in    
Wind  
Wind Speed 8 mph (SSE)    
Max Wind Speed 16 mph    
Max Gust Speed -    
Visibility 10 miles    
Events Rain    
Averages and records for this station are not official NWS values.
T = Trace of Precipitation, MM = Missing Value Source: NWS Daily Summary

Daily Weather History Graph

Daily Weather History Graph

Search for Another Location

Airport:

Trip Planner

Search our weather history database for the weather conditions in past years. The results will help you decide how hot, cold, wet, or windy it might be!

Date:

Astronomy

Jul. 20, 2013 Rise Set
Actual Time 5:47 AM PDT 7:54 PM PDT
Civil Twilight 5:18 AM PDT 8:22 PM PDT
Nautical Twilight 4:44 AM PDT 8:57 PM PDT
Astronomical Twilight 4:07 AM PDT 9:34 PM PDT
Moon 6:02 PM PDT (7/20) 3:31 AM PDT (7/20)
Length of Visible Light 15h 03m
Length of Day
14h 07m
Waxing Gibbous, 94% of the Moon is Illuminated
Jul 20
Waxing Gibbous
Jul 22
Full
Jul 29
Last Quarter
Aug 6
New
Aug 14
First Quarter

Hourly Weather History & Observations

Time (PDT) Temp. Heat Index Dew Point Humidity Pressure Visibility Wind Dir Wind Speed Gust Speed Precip Events Conditions
12:56 AM 89.1 °F 87.1 °F 55.0 °F 31% 29.83 in 10.0 mi NW 6.9 mph - N/A   Mostly Cloudy
1:56 AM 82.0 °F 83.4 °F 64.0 °F 54% 29.81 in 10.0 mi South 13.8 mph - N/A   Mostly Cloudy
2:56 AM 81.0 °F 82.7 °F 64.9 °F 58% 29.77 in 10.0 mi SE 3.5 mph - 0.00 in Rain Light Rain
3:56 AM 82.0 °F 83.1 °F 63.0 °F 52% 29.75 in 10.0 mi Calm Calm - 0.00 in   Clear
4:56 AM 82.9 °F 83.7 °F 62.1 °F 49% 29.77 in 10.0 mi SE 5.8 mph - N/A   Mostly Cloudy
5:56 AM 82.9 °F 83.7 °F 62.1 °F 49% 29.81 in 10.0 mi SE 13.8 mph - N/A   Partly Cloudy
6:56 AM 81.0 °F 82.7 °F 64.9 °F 58% 29.83 in 10.0 mi ESE 16.1 mph - N/A   Mostly Cloudy
7:56 AM 82.0 °F 83.8 °F 64.9 °F 56% 29.85 in 10.0 mi SSE 5.8 mph - N/A   Overcast
8:56 AM 82.9 °F 85.0 °F 66.0 °F 56% 29.86 in 10.0 mi SE 8.1 mph - N/A   Overcast
9:56 AM 86.0 °F 88.8 °F 66.9 °F 53% 29.85 in 10.0 mi Variable 5.8 mph - N/A   Overcast
10:56 AM 88.0 °F 90.3 °F 66.0 °F 48% 29.85 in 10.0 mi SE 8.1 mph - N/A   Overcast
11:56 AM 88.0 °F 90.7 °F 66.9 °F 49% 29.84 in 9.0 mi ESE 6.9 mph - 0.00 in   Overcast
12:56 PM 89.1 °F 91.3 °F 66.0 °F 46% 29.82 in 10.0 mi ESE 8.1 mph - N/A   Mostly Cloudy
1:56 PM 93.0 °F 95.0 °F 64.9 °F 39% 29.81 in 10.0 mi South 6.9 mph - N/A   Mostly Cloudy
2:56 PM 96.1 °F 98.3 °F 64.0 °F 35% 29.77 in 10.0 mi Variable 5.8 mph - N/A   Scattered Clouds
3:56 PM 96.1 °F 96.4 °F 61.0 °F 31% 29.74 in 10.0 mi Variable 4.6 mph - N/A   Scattered Clouds
4:56 PM 98.1 °F 98.1 °F 60.1 °F 28% 29.71 in 10.0 mi SW 8.1 mph - N/A   Scattered Clouds
5:56 PM 99.0 °F 98.6 °F 59.0 °F 26% 29.70 in 10.0 mi South 8.1 mph - N/A   Mostly Cloudy
6:56 PM 96.1 °F 96.4 °F 61.0 °F 31% 29.70 in 10.0 mi WSW 15.0 mph - N/A   Mostly Cloudy
7:56 PM 93.0 °F 94.6 °F 64.0 °F 38% 29.71 in 10.0 mi SW 12.7 mph - N/A   Mostly Cloudy
8:56 PM 90.0 °F 91.7 °F 64.9 °F 43% 29.73 in 10.0 mi SW 15.0 mph - N/A   Mostly Cloudy
9:56 PM 88.0 °F 90.3 °F 66.0 °F 48% 29.75 in 10.0 mi SW 15.0 mph - N/A   Mostly Cloudy
10:56 PM 88.0 °F 89.6 °F 64.9 °F 46% 29.77 in 10.0 mi Calm Calm - N/A   Mostly Cloudy
11:56 PM 87.1 °F 88.9 °F 64.9 °F 48% 29.77 in 10.0 mi Calm Calm - N/A   Overcast